(44) Nysa
ephemeris date magn radius delta ra dec elong phase
Today13 Jul 202611.72.228 AU2.744 AU10h49m+09°54'49.8°20.4°
Opposition15 Jun 202710.32.715 AU1.701 AU17h34m-18°55'175.6°1.6°
(44) Nysa - 2026-07-13
astro.vanbuitenen.nl


 
-1 year
-1 month
-1 day
Now
+1 day
+1 month
+1 year

The interactive orbit chart above shows the body's path through the solar system and its position at the given date. Green and blue lines are shown perpendicular to the ecliptic plane: Green if the path is above the ecliptic plane, blue if it is below. (Left-click and drag to rotate the view; Right-click and drag to move the view; Use scroll wheel to zoom in our out.)

The orbital elements of Nysa are:

            e (Eccentricity)                : 0.1496735
            a (Semimajor axis)              : 2.4224996
            i (Inclination)                 : 3.71314
            Ω (Longitude of ascending node) : 131.47624
            ω (Argument of perihelion)      : 343.89309
            M (Mean anomaly)                : 41.45746
            Epoch                           : 2026 Jun 09

            L (Longitude of perihelion)     : 115.40139
            B (Latitude of perihelion)      : -1.02947
            P (Orbital period in years)     : 3.77            
        

The light curve chart below shows the estimated development of the minor planet's magnitude.


The all-sky chart below shows the path of the minor planet over the same period as the light curve. The current position is marked yellow.





The following chart shows the path of the minor planet in the next few days. The field of view is optimized for (~10x50) binoculars and finderscopes.




Ephemerides:
Date       Time       RA (2000)    DEC (2000)    delta   radius  elong  phase   PA    magn
2026-07-13 00:00 UT   10 49 49.2   +09 54 17     2.744    2.228   49.8   20.4   110   11.7 
2026-07-13 10:14 UT   10 50 34.7   +09 49 47     2.749    2.229   49.6   20.3   110   11.7 
2026-07-14 00:00 UT   10 51 35.9   +09 43 43     2.754    2.230   49.3   20.2   110   11.7 
2026-07-15 00:00 UT   10 53 22.7   +09 33 07     2.765    2.231   48.9   20.1   110   11.7 
2026-07-16 00:00 UT   10 55 09.5   +09 22 28     2.775    2.233   48.4   19.9   110   11.7 
2026-07-17 00:00 UT   10 56 56.3   +09 11 46     2.785    2.234   47.9   19.7   110   11.7 
2026-07-18 00:00 UT   10 58 43.2   +09 01 02     2.795    2.236   47.4   19.6   110   11.7 
2026-07-19 00:00 UT   11 00 30.1   +08 50 16     2.804    2.237   46.9   19.4   110   11.7 
2026-07-20 00:00 UT   11 02 17.0   +08 39 28     2.814    2.239   46.5   19.2   110   11.7 
2026-07-21 00:00 UT   11 04 04.0   +08 28 37     2.824    2.240   46.0   19.0   110   11.7 
2026-07-22 00:00 UT   11 05 51.0   +08 17 45     2.834    2.242   45.5   18.9   110   11.7 
2026-07-23 00:00 UT   11 07 38.0   +08 06 50     2.843    2.243   45.0   18.7   110   11.7 
2026-07-24 00:00 UT   11 09 25.0   +07 55 53     2.853    2.245   44.6   18.5   110   11.7 
2026-07-25 00:00 UT   11 11 12.0   +07 44 55     2.862    2.247   44.1   18.3   110   11.7 
2026-07-26 00:00 UT   11 12 59.0   +07 33 55     2.872    2.248   43.6   18.2   110   11.7 
2026-07-27 00:00 UT   11 14 46.1   +07 22 53     2.881    2.250   43.1   18.0   110   11.7 
2026-07-28 00:00 UT   11 16 33.2   +07 11 49     2.890    2.251   42.7   17.8   110   11.7 
2026-07-29 00:00 UT   11 18 20.3   +07 00 43     2.900    2.253   42.2   17.6   110   11.7 
2026-07-30 00:00 UT   11 20 07.4   +06 49 36     2.909    2.254   41.7   17.4   110   11.8 


    Terminology:
            
    delta:  distance between minor planet and earth in AU
    radius: distance between minor planet and sun in AU
    magn:   magnitude (brightness) estimate    
    ra:     right ascension in hours (24h = 360deg)
    dec:    declination in degrees
    elong:  elongation in degrees (angle sun-earth-minor planet)    
    phase:  phase angle in degrees (angle sun-minor planet-earth)        
    AU:     Astronomical Unit (mean distance between earth and sun: 149597870.7 km
    

Orbital elements provided by the MPC (Minor Planet Center).
Calculations by a modified version of AAPlus, a C# implementation of the AA+ project by PJ Naughter from the algorithms presented in the book "Astronomical Algorithms" by Jean Meeus.
NGC2000 dso catalog and star labels from VizieR as provided by the Strasbourg astronomical Data Center.
Tycho2 catalog from the ESO archive.